owner,sensor,date,latitude,longitude,air_pressure(mBar),qcFlag 
COAPS,ioos:station:COAPS:N7:1,2014-03-01T00:00:00Z,29.6619,-84.3731,1018.737,1111122 
COAPS,ioos:station:COAPS:N7:1,2014-03-01T00:01:00Z,29.6619,-84.3731,1018.74,1111122 
COAPS,ioos:station:COAPS:N7:1,2014-03-01T00:02:00Z,29.6619,-84.3731,1018.736,1111122 
COAPS,ioos:station:COAPS:N7:1,2014-03-01T00:03:00Z,29.6619,-84.3731,1018.737,1111122 
COAPS,ioos:station:COAPS:N7:1,2014-03-01T00:04:00Z,29.6619,-84.3731,1018.74,1111122 
COAPS,ioos:station:COAPS:N7:1,2014-03-01T00:05:00Z,29.6619,-84.3731,1018.754,1111122 
COAPS,ioos:station:COAPS:N7:1,2014-03-01T00:06:00Z,29.6619,-84.3731,1018.763,1111122 
COAPS,ioos:station:COAPS:N7:1,2014-03-01T00:07:00Z,29.6619,-84.3731,1018.777,1111122 
COAPS,ioos:station:COAPS:N7:1,2014-03-01T00:08:00Z,29.6619,-84.3731,1018.803,1111122 
COAPS,ioos:station:COAPS:N7:1,2014-03-01T00:09:00Z,29.6619,-84.3731,1018.823,1111122 
COAPS,ioos:station:COAPS:N7:1,2014-03-01T00:10:00Z,29.6619,-84.3731,1018.823,1111122 
COAPS,ioos:station:COAPS:N7:1,2014-03-01T00:11:00Z,29.6619,-84.3731,1018.832,1111122 
COAPS,ioos:station:COAPS:N7:1,2014-03-01T00:12:00Z,29.6619,-84.3731,1018.83,1111122 
COAPS,ioos:station:COAPS:N7:1,2014-03-01T00:13:00Z,29.6619,-84.3731,1018.822,1111122 
COAPS,ioos:station:COAPS:N7:1,2014-03-01T00:14:00Z,29.6619,-84.3731,1018.823,1111122 
COAPS,ioos:station:COAPS:N7:1,2014-03-01T00:15:00Z,29.6619,-84.3731,1018.818,1111122 
COAPS,ioos:station:COAPS:N7:1,2014-03-01T00:16:00Z,29.6619,-84.3731,1018.824,1111122 
COAPS,ioos:station:COAPS:N7:1,2014-03-01T00:17:00Z,29.6619,-84.3731,1018.828,1111122 
COAPS,ioos:station:COAPS:N7:1,2014-03-01T00:18:00Z,29.6619,-84.3731,1018.846,1111122 
COAPS,ioos:station:COAPS:N7:1,2014-03-01T00:19:00Z,29.6619,-84.3731,1018.838,1111122 
COAPS,ioos:station:COAPS:N7:1,2014-03-01T00:20:00Z,29.6619,-84.3731,1018.849,1111122 
COAPS,ioos:station:COAPS:N7:1,2014-03-01T00:21:00Z,29.6619,-84.3731,1018.857,1111122 
COAPS,ioos:station:COAPS:N7:1,2014-03-01T00:22:00Z,29.6619,-84.3731,1018.873,1111122 
COAPS,ioos:station:COAPS:N7:1,2014-03-01T00:23:00Z,29.6619,-84.3731,1018.884,1111122 
COAPS,ioos:station:COAPS:N7:1,2014-03-01T00:24:00Z,29.6619,-84.3731,1018.888,1111122 
COAPS,ioos:station:COAPS:N7:1,2014-03-01T00:25:00Z,29.6619,-84.3731,1018.883,1111122 
COAPS,ioos:station:COAPS:N7:1,2014-03-01T00:26:00Z,29.6619,-84.3731,1018.862,1111122 
COAPS,ioos:station:COAPS:N7:1,2014-03-01T00:27:00Z,29.6619,-84.3731,1018.851,1111122 
COAPS,ioos:station:COAPS:N7:1,2014-03-01T00:28:00Z,29.6619,-84.3731,1018.859,1111122 
COAPS,ioos:station:COAPS:N7:1,2014-03-01T00:29:00Z,29.6619,-84.3731,1018.862,1111122 
COAPS,ioos:station:COAPS:N7:1,2014-03-01T00:30:00Z,29.6619,-84.3731,1018.878,1111122 
COAPS,ioos:station:COAPS:N7:1,2014-03-01T00:31:00Z,29.6619,-84.3731,1018.886,1111122 
COAPS,ioos:station:COAPS:N7:1,2014-03-01T00:32:00Z,29.6619,-84.3731,1018.913,1111122 
COAPS,ioos:station:COAPS:N7:1,2014-03-01T00:33:00Z,29.6619,-84.3731,1018.933,1111122 
COAPS,ioos:station:COAPS:N7:1,2014-03-01T00:34:00Z,29.6619,-84.3731,1018.943,1111122 
COAPS,ioos:station:COAPS:N7:1,2014-03-01T00:35:00Z,29.6619,-84.3731,1018.97,1111122 
COAPS,ioos:station:COAPS:N7:1,2014-03-01T00:36:00Z,29.6619,-84.3731,1019.014,1111122 
COAPS,ioos:station:COAPS:N7:1,2014-03-01T00:37:00Z,29.6619,-84.3731,1019.054,1111122 
COAPS,ioos:station:COAPS:N7:1,2014-03-01T00:38:00Z,29.6619,-84.3731,1019.089,1111122 
COAPS,ioos:station:COAPS:N7:1,2014-03-01T00:39:00Z,29.6619,-84.3731,1019.104,1111122 
COAPS,ioos:station:COAPS:N7:1,2014-03-01T00:40:00Z,29.6619,-84.3731,1019.105,1111122 
COAPS,ioos:station:COAPS:N7:1,2014-03-01T00:41:00Z,29.6619,-84.3731,1019.101,1111122 
COAPS,ioos:station:COAPS:N7:1,2014-03-01T00:42:00Z,29.6619,-84.3731,1019.093,1111122 
COAPS,ioos:station:COAPS:N7:1,2014-03-01T00:43:00Z,29.6619,-84.3731,1019.069,1111122 
COAPS,ioos:station:COAPS:N7:1,2014-03-01T00:44:00Z,29.6619,-84.3731,1019.056,1111122 
COAPS,ioos:station:COAPS:N7:1,2014-03-01T00:45:00Z,29.6619,-84.3731,1019.035,1111122 
COAPS,ioos:station:COAPS:N7:1,2014-03-01T00:46:00Z,29.6619,-84.3731,1019.052,1111122 
COAPS,ioos:station:COAPS:N7:1,2014-03-01T00:47:00Z,29.6619,-84.3731,1019.036,1111122 
COAPS,ioos:station:COAPS:N7:1,2014-03-01T00:48:00Z,29.6619,-84.3731,1019.033,1111122 
COAPS,ioos:station:COAPS:N7:1,2014-03-01T00:49:00Z,29.6619,-84.3731,1019.024,1111122 
COAPS,ioos:station:COAPS:N7:1,2014-03-01T00:50:00Z,29.6619,-84.3731,1019.049,1111122 
COAPS,ioos:station:COAPS:N7:1,2014-03-01T00:51:00Z,29.6619,-84.3731,1019.06,1111122 
COAPS,ioos:station:COAPS:N7:1,2014-03-01T00:52:00Z,29.6619,-84.3731,1019.096,1111122 
COAPS,ioos:station:COAPS:N7:1,2014-03-01T00:53:00Z,29.6619,-84.3731,1019.116,1111122 
COAPS,ioos:station:COAPS:N7:1,2014-03-01T00:54:00Z,29.6619,-84.3731,1019.16,1111122 
COAPS,ioos:station:COAPS:N7:1,2014-03-01T00:55:00Z,29.6619,-84.3731,1019.191,1111122 
COAPS,ioos:station:COAPS:N7:1,2014-03-01T00:56:00Z,29.6619,-84.3731,1019.216,1111122 
COAPS,ioos:station:COAPS:N7:1,2014-03-01T00:57:00Z,29.6619,-84.3731,1019.213,1111122 
COAPS,ioos:station:COAPS:N7:1,2014-03-01T00:58:00Z,29.6619,-84.3731,1019.195,1111122 
COAPS,ioos:station:COAPS:N7:1,2014-03-01T00:59:00Z,29.6619,-84.3731,1019.182,1111122 
COAPS,ioos:station:COAPS:N7:1,2014-03-01T01:00:00Z,29.6619,-84.3731,1019.168,1111122 
COAPS,ioos:station:COAPS:N7:1,2014-03-01T01:01:00Z,29.6619,-84.3731,1019.177,1111122 
COAPS,ioos:station:COAPS:N7:1,2014-03-01T01:02:00Z,29.6619,-84.3731,1019.196,1111122 
COAPS,ioos:station:COAPS:N7:1,2014-03-01T01:03:00Z,29.6619,-84.3731,1019.249,1111122 
COAPS,ioos:station:COAPS:N7:1,2014-03-01T01:04:00Z,29.6619,-84.3731,1019.293,1111122 
COAPS,ioos:station:COAPS:N7:1,2014-03-01T01:05:00Z,29.6619,-84.3731,1019.329,1111122 
COAPS,ioos:station:COAPS:N7:1,2014-03-01T01:06:00Z,29.6619,-84.3731,1019.343,1111122 
COAPS,ioos:station:COAPS:N7:1,2014-03-01T01:07:00Z,29.6619,-84.3731,1019.354,1111122 
COAPS,ioos:station:COAPS:N7:1,2014-03-01T01:08:00Z,29.6619,-84.3731,1019.377,1111122 
COAPS,ioos:station:COAPS:N7:1,2014-03-01T01:09:00Z,29.6619,-84.3731,1019.395,1111122 
COAPS,ioos:station:COAPS:N7:1,2014-03-01T01:10:00Z,29.6619,-84.3731,1019.417,1111122 
COAPS,ioos:station:COAPS:N7:1,2014-03-01T01:11:00Z,29.6619,-84.3731,1019.405,1111122 
COAPS,ioos:station:COAPS:N7:1,2014-03-01T01:12:00Z,29.6619,-84.3731,1019.419,1111122 
COAPS,ioos:station:COAPS:N7:1,2014-03-01T01:13:00Z,29.6619,-84.3731,1019.424,1111122 
COAPS,ioos:station:COAPS:N7:1,2014-03-01T01:14:00Z,29.6619,-84.3731,1019.422,1111122 
COAPS,ioos:station:COAPS:N7:1,2014-03-01T01:15:00Z,29.6619,-84.3731,1019.43,1111122 
COAPS,ioos:station:COAPS:N7:1,2014-03-01T01:16:00Z,29.6619,-84.3731,1019.449,1111122 
COAPS,ioos:station:COAPS:N7:1,2014-03-01T01:17:00Z,29.6619,-84.3731,1019.46,1111122 
COAPS,ioos:station:COAPS:N7:1,2014-03-01T01:18:00Z,29.6619,-84.3731,1019.519,1111122 
COAPS,ioos:station:COAPS:N7:1,2014-03-01T01:19:00Z,29.6619,-84.3731,1019.585,1111122 
COAPS,ioos:station:COAPS:N7:1,2014-03-01T01:20:00Z,29.6619,-84.3731,1019.621,1111122 
COAPS,ioos:station:COAPS:N7:1,2014-03-01T01:21:00Z,29.6619,-84.3731,1019.648,1111122 
COAPS,ioos:station:COAPS:N7:1,2014-03-01T01:22:00Z,29.6619,-84.3731,1019.64,1111122 
COAPS,ioos:station:COAPS:N7:1,2014-03-01T01:23:00Z,29.6619,-84.3731,1019.626,1111122 
COAPS,ioos:station:COAPS:N7:1,2014-03-01T01:24:00Z,29.6619,-84.3731,1019.597,1111122 
COAPS,ioos:station:COAPS:N7:1,2014-03-01T01:25:00Z,29.6619,-84.3731,1019.602,1111122 
COAPS,ioos:station:COAPS:N7:1,2014-03-01T01:26:00Z,29.6619,-84.3731,1019.588,1111122 
COAPS,ioos:station:COAPS:N7:1,2014-03-01T01:27:00Z,29.6619,-84.3731,1019.571,1111122 
COAPS,ioos:station:COAPS:N7:1,2014-03-01T01:28:00Z,29.6619,-84.3731,1019.569,1111122 
COAPS,ioos:station:COAPS:N7:1,2014-03-01T01:29:00Z,29.6619,-84.3731,1019.57,1111122 
COAPS,ioos:station:COAPS:N7:1,2014-03-01T01:30:00Z,29.6619,-84.3731,1019.576,1111122 
COAPS,ioos:station:COAPS:N7:1,2014-03-01T01:31:00Z,29.6619,-84.3731,1019.594,1111122 
COAPS,ioos:station:COAPS:N7:1,2014-03-01T01:32:00Z,29.6619,-84.3731,1019.629,1111122 
COAPS,ioos:station:COAPS:N7:1,2014-03-01T01:33:00Z,29.6619,-84.3731,1019.642,1111122 
COAPS,ioos:station:COAPS:N7:1,2014-03-01T01:34:00Z,29.6619,-84.3731,1019.644,1111122 
COAPS,ioos:station:COAPS:N7:1,2014-03-01T01:35:00Z,29.6619,-84.3731,1019.657,1111122 
COAPS,ioos:station:COAPS:N7:1,2014-03-01T01:36:00Z,29.6619,-84.3731,1019.668,1111122 
COAPS,ioos:station:COAPS:N7:1,2014-03-01T01:37:00Z,29.6619,-84.3731,1019.677,1111122 
COAPS,ioos:station:COAPS:N7:1,2014-03-01T01:38:00Z,29.6619,-84.3731,1019.697,1111122 
COAPS,ioos:station:COAPS:N7:1,2014-03-01T01:39:00Z,29.6619,-84.3731,1019.697,1111122 
COAPS,ioos:station:COAPS:N7:1,2014-03-01T01:40:00Z,29.6619,-84.3731,1019.7,1111122 
COAPS,ioos:station:COAPS:N7:1,2014-03-01T01:41:00Z,29.6619,-84.3731,1019.695,1111122 
COAPS,ioos:station:COAPS:N7:1,2014-03-01T01:42:00Z,29.6619,-84.3731,1019.695,1111122 
COAPS,ioos:station:COAPS:N7:1,2014-03-01T01:43:00Z,29.6619,-84.3731,1019.707,1111122 
COAPS,ioos:station:COAPS:N7:1,2014-03-01T01:44:00Z,29.6619,-84.3731,1019.703,1111122 
COAPS,ioos:station:COAPS:N7:1,2014-03-01T01:45:00Z,29.6619,-84.3731,1019.716,1111122 
COAPS,ioos:station:COAPS:N7:1,2014-03-01T01:46:00Z,29.6619,-84.3731,1019.693,1111122 
COAPS,ioos:station:COAPS:N7:1,2014-03-01T01:47:00Z,29.6619,-84.3731,1019.71,1111122 
COAPS,ioos:station:COAPS:N7:1,2014-03-01T01:48:00Z,29.6619,-84.3731,1019.708,1111122 
COAPS,ioos:station:COAPS:N7:1,2014-03-01T01:49:00Z,29.6619,-84.3731,1019.739,1111122 
COAPS,ioos:station:COAPS:N7:1,2014-03-01T01:50:00Z,29.6619,-84.3731,1019.755,1111122 
COAPS,ioos:station:COAPS:N7:1,2014-03-01T01:51:00Z,29.6619,-84.3731,1019.766,1111122 
COAPS,ioos:station:COAPS:N7:1,2014-03-01T01:52:00Z,29.6619,-84.3731,1019.787,1111122 
COAPS,ioos:station:COAPS:N7:1,2014-03-01T01:53:00Z,29.6619,-84.3731,1019.82,1111122 
COAPS,ioos:station:COAPS:N7:1,2014-03-01T01:54:00Z,29.6619,-84.3731,1019.847,1111122 
COAPS,ioos:station:COAPS:N7:1,2014-03-01T01:55:00Z,29.6619,-84.3731,1019.889,1111122 
COAPS,ioos:station:COAPS:N7:1,2014-03-01T01:56:00Z,29.6619,-84.3731,1019.914,1111122 
COAPS,ioos:station:COAPS:N7:1,2014-03-01T01:57:00Z,29.6619,-84.3731,1019.95,1111122 
COAPS,ioos:station:COAPS:N7:1,2014-03-01T01:58:00Z,29.6619,-84.3731,1019.984,1111122 
COAPS,ioos:station:COAPS:N7:1,2014-03-01T01:59:00Z,29.6619,-84.3731,1020.006,1111122 
COAPS,ioos:station:COAPS:N7:1,2014-03-01T02:00:00Z,29.6619,-84.3731,1020.034,1111122 
COAPS,ioos:station:COAPS:N7:1,2014-03-01T02:01:00Z,29.6619,-84.3731,1020.052,1111122 
COAPS,ioos:station:COAPS:N7:1,2014-03-01T02:02:00Z,29.6619,-84.3731,1020.082,1111122 
COAPS,ioos:station:COAPS:N7:1,2014-03-01T02:03:00Z,29.6619,-84.3731,1020.106,1111122 
COAPS,ioos:station:COAPS:N7:1,2014-03-01T02:04:00Z,29.6619,-84.3731,1020.114,1111122 
COAPS,ioos:station:COAPS:N7:1,2014-03-01T02:05:00Z,29.6619,-84.3731,1020.131,1111122 
COAPS,ioos:station:COAPS:N7:1,2014-03-01T02:06:00Z,29.6619,-84.3731,1020.129,1111122 
COAPS,ioos:station:COAPS:N7:1,2014-03-01T02:07:00Z,29.6619,-84.3731,1020.156,1111122 
COAPS,ioos:station:COAPS:N7:1,2014-03-01T02:08:00Z,29.6619,-84.3731,1020.186,1111122 
COAPS,ioos:station:COAPS:N7:1,2014-03-01T02:09:00Z,29.6619,-84.3731,1020.234,1111122 
COAPS,ioos:station:COAPS:N7:1,2014-03-01T02:10:00Z,29.6619,-84.3731,1020.271,1111122 
COAPS,ioos:station:COAPS:N7:1,2014-03-01T02:11:00Z,29.6619,-84.3731,1020.324,1111122 
COAPS,ioos:station:COAPS:N7:1,2014-03-01T02:12:00Z,29.6619,-84.3731,1020.376,1111122 
COAPS,ioos:station:COAPS:N7:1,2014-03-01T02:13:00Z,29.6619,-84.3731,1020.431,1111122 
COAPS,ioos:station:COAPS:N7:1,2014-03-01T02:14:00Z,29.6619,-84.3731,1020.475,1111122 
COAPS,ioos:station:COAPS:N7:1,2014-03-01T02:15:00Z,29.6619,-84.3731,1020.528,1111122 
COAPS,ioos:station:COAPS:N7:1,2014-03-01T02:16:00Z,29.6619,-84.3731,1020.55,1111122 
COAPS,ioos:station:COAPS:N7:1,2014-03-01T02:17:00Z,29.6619,-84.3731,1020.605,1111122 
COAPS,ioos:station:COAPS:N7:1,2014-03-01T02:18:00Z,29.6619,-84.3731,1020.629,1111122 
COAPS,ioos:station:COAPS:N7:1,2014-03-01T02:19:00Z,29.6619,-84.3731,1020.676,1111122 
COAPS,ioos:station:COAPS:N7:1,2014-03-01T02:20:00Z,29.6619,-84.3731,1020.695,1111122 
COAPS,ioos:station:COAPS:N7:1,2014-03-01T02:21:00Z,29.6619,-84.3731,1020.729,1111122 
COAPS,ioos:station:COAPS:N7:1,2014-03-01T02:22:00Z,29.6619,-84.3731,1020.755,1111122 
COAPS,ioos:station:COAPS:N7:1,2014-03-01T02:23:00Z,29.6619,-84.3731,1020.758,1111122 
COAPS,ioos:station:COAPS:N7:1,2014-03-01T02:24:00Z,29.6619,-84.3731,1020.767,1111122 
COAPS,ioos:station:COAPS:N7:1,2014-03-01T02:25:00Z,29.6619,-84.3731,1020.737,1111122 
COAPS,ioos:station:COAPS:N7:1,2014-03-01T02:26:00Z,29.6619,-84.3731,1020.71,1111122 
COAPS,ioos:station:COAPS:N7:1,2014-03-01T02:27:00Z,29.6619,-84.3731,1020.697,1111122 
COAPS,ioos:station:COAPS:N7:1,2014-03-01T02:28:00Z,29.6619,-84.3731,1020.686,1111122 
COAPS,ioos:station:COAPS:N7:1,2014-03-01T02:29:00Z,29.6619,-84.3731,1020.687,1111122 
COAPS,ioos:station:COAPS:N7:1,2014-03-01T02:30:00Z,29.6619,-84.3731,1020.685,1111122 
COAPS,ioos:station:COAPS:N7:1,2014-03-01T02:31:00Z,29.6619,-84.3731,1020.701,1111122 
COAPS,ioos:station:COAPS:N7:1,2014-03-01T02:32:00Z,29.6619,-84.3731,1020.724,1111122 
COAPS,ioos:station:COAPS:N7:1,2014-03-01T02:33:00Z,29.6619,-84.3731,1020.729,1111122 
COAPS,ioos:station:COAPS:N7:1,2014-03-01T02:34:00Z,29.6619,-84.3731,1020.72,1111122 
COAPS,ioos:station:COAPS:N7:1,2014-03-01T02:35:00Z,29.6619,-84.3731,1020.712,1111122 
COAPS,ioos:station:COAPS:N7:1,2014-03-01T02:36:00Z,29.6619,-84.3731,1020.691,1111122 
COAPS,ioos:station:COAPS:N7:1,2014-03-01T02:37:00Z,29.6619,-84.3731,1020.685,1111122 
COAPS,ioos:station:COAPS:N7:1,2014-03-01T02:38:00Z,29.6619,-84.3731,1020.679,1111122 
COAPS,ioos:station:COAPS:N7:1,2014-03-01T02:39:00Z,29.6619,-84.3731,1020.673,1111122 
COAPS,ioos:station:COAPS:N7:1,2014-03-01T02:40:00Z,29.6619,-84.3731,1020.678,1111122 
COAPS,ioos:station:COAPS:N7:1,2014-03-01T02:41:00Z,29.6619,-84.3731,1020.685,1111122 
COAPS,ioos:station:COAPS:N7:1,2014-03-01T02:42:00Z,29.6619,-84.3731,1020.681,1111122 
COAPS,ioos:station:COAPS:N7:1,2014-03-01T02:43:00Z,29.6619,-84.3731,1020.689,1111122 
COAPS,ioos:station:COAPS:N7:1,2014-03-01T02:44:00Z,29.6619,-84.3731,1020.675,1111122 
COAPS,ioos:station:COAPS:N7:1,2014-03-01T02:45:00Z,29.6619,-84.3731,1020.686,1111122 
COAPS,ioos:station:COAPS:N7:1,2014-03-01T02:46:00Z,29.6619,-84.3731,1020.692,1111122 
COAPS,ioos:station:COAPS:N7:1,2014-03-01T02:47:00Z,29.6619,-84.3731,1020.696,1111122 
COAPS,ioos:station:COAPS:N7:1,2014-03-01T02:48:00Z,29.6619,-84.3731,1020.701,1111122 
COAPS,ioos:station:COAPS:N7:1,2014-03-01T02:49:00Z,29.6619,-84.3731,1020.725,1111122 
COAPS,ioos:station:COAPS:N7:1,2014-03-01T02:50:00Z,29.6619,-84.3731,1020.724,1111122 
COAPS,ioos:station:COAPS:N7:1,2014-03-01T02:51:00Z,29.6619,-84.3731,1020.735,1111122 
COAPS,ioos:station:COAPS:N7:1,2014-03-01T02:52:00Z,29.6619,-84.3731,1020.743,1111122 
COAPS,ioos:station:COAPS:N7:1,2014-03-01T02:53:00Z,29.6619,-84.3731,1020.756,1111122 
COAPS,ioos:station:COAPS:N7:1,2014-03-01T02:54:00Z,29.6619,-84.3731,1020.761,1111122 
COAPS,ioos:station:COAPS:N7:1,2014-03-01T02:55:00Z,29.6619,-84.3731,1020.764,1111122 
COAPS,ioos:station:COAPS:N7:1,2014-03-01T02:56:00Z,29.6619,-84.3731,1020.801,1111122 
COAPS,ioos:station:COAPS:N7:1,2014-03-01T02:57:00Z,29.6619,-84.3731,1020.808,1111122 
COAPS,ioos:station:COAPS:N7:1,2014-03-01T02:58:00Z,29.6619,-84.3731,1020.818,1111122 
COAPS,ioos:station:COAPS:N7:1,2014-03-01T02:59:00Z,29.6619,-84.3731,1020.84,1111122 
COAPS,ioos:station:COAPS:N7:1,2014-03-01T03:00:00Z,29.6619,-84.3731,1020.859,1111122 
COAPS,ioos:station:COAPS:N7:1,2014-03-01T03:01:00Z,29.6619,-84.3731,1020.895,1111122 
COAPS,ioos:station:COAPS:N7:1,2014-03-01T03:02:00Z,29.6619,-84.3731,1020.919,1111122 
COAPS,ioos:station:COAPS:N7:1,2014-03-01T03:03:00Z,29.6619,-84.3731,1020.947,1111122 
COAPS,ioos:station:COAPS:N7:1,2014-03-01T03:04:00Z,29.6619,-84.3731,1020.958,1111122 
COAPS,ioos:station:COAPS:N7:1,2014-03-01T03:05:00Z,29.6619,-84.3731,1020.979,1111122 
COAPS,ioos:station:COAPS:N7:1,2014-03-01T03:06:00Z,29.6619,-84.3731,1020.997,1111122 
COAPS,ioos:station:COAPS:N7:1,2014-03-01T03:07:00Z,29.6619,-84.3731,1021.006,1111122 
COAPS,ioos:station:COAPS:N7:1,2014-03-01T03:08:00Z,29.6619,-84.3731,1021.027,1111122 
COAPS,ioos:station:COAPS:N7:1,2014-03-01T03:09:00Z,29.6619,-84.3731,1021.051,1111122 
COAPS,ioos:station:COAPS:N7:1,2014-03-01T03:10:00Z,29.6619,-84.3731,1021.072,1111122 
COAPS,ioos:station:COAPS:N7:1,2014-03-01T03:11:00Z,29.6619,-84.3731,1021.086,1111122 
COAPS,ioos:station:COAPS:N7:1,2014-03-01T03:12:00Z,29.6619,-84.3731,1021.106,1111122 
COAPS,ioos:station:COAPS:N7:1,2014-03-01T03:13:00Z,29.6619,-84.3731,1021.137,1111122 
COAPS,ioos:station:COAPS:N7:1,2014-03-01T03:14:00Z,29.6619,-84.3731,1021.175,1111122 
COAPS,ioos:station:COAPS:N7:1,2014-03-01T03:15:00Z,29.6619,-84.3731,1021.191,1111122 
COAPS,ioos:station:COAPS:N7:1,2014-03-01T03:16:00Z,29.6619,-84.3731,1021.211,1111122 
COAPS,ioos:station:COAPS:N7:1,2014-03-01T03:17:00Z,29.6619,-84.3731,1021.214,1111122 
COAPS,ioos:station:COAPS:N7:1,2014-03-01T03:18:00Z,29.6619,-84.3731,1021.222,1111122 
COAPS,ioos:station:COAPS:N7:1,2014-03-01T03:19:00Z,29.6619,-84.3731,1021.225,1111122 
COAPS,ioos:station:COAPS:N7:1,2014-03-01T03:20:00Z,29.6619,-84.3731,1021.255,1111122 
COAPS,ioos:station:COAPS:N7:1,2014-03-01T03:21:00Z,29.6619,-84.3731,1021.263,1111122 
COAPS,ioos:station:COAPS:N7:1,2014-03-01T03:22:00Z,29.6619,-84.3731,1021.274,1111122 
COAPS,ioos:station:COAPS:N7:1,2014-03-01T03:23:00Z,29.6619,-84.3731,1021.287,1111122 
COAPS,ioos:station:COAPS:N7:1,2014-03-01T03:24:00Z,29.6619,-84.3731,1021.282,1111122 
COAPS,ioos:station:COAPS:N7:1,2014-03-01T03:25:00Z,29.6619,-84.3731,1021.283,1111122 
COAPS,ioos:station:COAPS:N7:1,2014-03-01T03:26:00Z,29.6619,-84.3731,1021.289,1111122 
COAPS,ioos:station:COAPS:N7:1,2014-03-01T03:27:00Z,29.6619,-84.3731,1021.271,1111122 
COAPS,ioos:station:COAPS:N7:1,2014-03-01T03:28:00Z,29.6619,-84.3731,1021.288,1111122 
COAPS,ioos:station:COAPS:N7:1,2014-03-01T03:29:00Z,29.6619,-84.3731,1021.229,1111122 
COAPS,ioos:station:COAPS:N7:1,2014-03-01T03:30:00Z,29.6619,-84.3731,1021.226,1111122 
COAPS,ioos:station:COAPS:N7:1,2014-03-01T03:31:00Z,29.6619,-84.3731,1021.22,1111122 
COAPS,ioos:station:COAPS:N7:1,2014-03-01T03:32:00Z,29.6619,-84.3731,1021.223,1111122 
COAPS,ioos:station:COAPS:N7:1,2014-03-01T03:33:00Z,29.6619,-84.3731,1021.214,1111122 
COAPS,ioos:station:COAPS:N7:1,2014-03-01T03:34:00Z,29.6619,-84.3731,1021.215,1111122 
COAPS,ioos:station:COAPS:N7:1,2014-03-01T03:35:00Z,29.6619,-84.3731,1021.221,1111122 
COAPS,ioos:station:COAPS:N7:1,2014-03-01T03:36:00Z,29.6619,-84.3731,1021.225,1111122 
COAPS,ioos:station:COAPS:N7:1,2014-03-01T03:37:00Z,29.6619,-84.3731,1021.236,1111122 
COAPS,ioos:station:COAPS:N7:1,2014-03-01T03:38:00Z,29.6619,-84.3731,1021.238,1111122 
COAPS,ioos:station:COAPS:N7:1,2014-03-01T03:39:00Z,29.6619,-84.3731,1021.25,1111122 
COAPS,ioos:station:COAPS:N7:1,2014-03-01T03:40:00Z,29.6619,-84.3731,1021.272,1111122 
COAPS,ioos:station:COAPS:N7:1,2014-03-01T03:41:00Z,29.6619,-84.3731,1021.285,1111122 
COAPS,ioos:station:COAPS:N7:1,2014-03-01T03:42:00Z,29.6619,-84.3731,1021.318,1111122 
COAPS,ioos:station:COAPS:N7:1,2014-03-01T03:43:00Z,29.6619,-84.3731,1021.309,1111122 
COAPS,ioos:station:COAPS:N7:1,2014-03-01T03:44:00Z,29.6619,-84.3731,1021.311,1111122 
COAPS,ioos:station:COAPS:N7:1,2014-03-01T03:45:00Z,29.6619,-84.3731,1021.317,1111122 
COAPS,ioos:station:COAPS:N7:1,2014-03-01T03:46:00Z,29.6619,-84.3731,1021.311,1111122 
COAPS,ioos:station:COAPS:N7:1,2014-03-01T03:47:00Z,29.6619,-84.3731,1021.333,1111122 
COAPS,ioos:station:COAPS:N7:1,2014-03-01T03:48:00Z,29.6619,-84.3731,1021.356,1111122 
COAPS,ioos:station:COAPS:N7:1,2014-03-01T03:49:00Z,29.6619,-84.3731,1021.372,1111122 
COAPS,ioos:station:COAPS:N7:1,2014-03-01T03:50:00Z,29.6619,-84.3731,1021.378,1111122 
COAPS,ioos:station:COAPS:N7:1,2014-03-01T03:51:00Z,29.6619,-84.3731,1021.372,1111122 
COAPS,ioos:station:COAPS:N7:1,2014-03-01T03:52:00Z,29.6619,-84.3731,1021.364,1111122 
COAPS,ioos:station:COAPS:N7:1,2014-03-01T03:53:00Z,29.6619,-84.3731,1021.347,1111122 
COAPS,ioos:station:COAPS:N7:1,2014-03-01T03:54:00Z,29.6619,-84.3731,1021.308,1111122 
COAPS,ioos:station:COAPS:N7:1,2014-03-01T03:55:00Z,29.6619,-84.3731,1021.299,1111122 
COAPS,ioos:station:COAPS:N7:1,2014-03-01T03:56:00Z,29.6619,-84.3731,1021.32,1111122 
COAPS,ioos:station:COAPS:N7:1,2014-03-01T03:57:00Z,29.6619,-84.3731,1021.327,1111122 
COAPS,ioos:station:COAPS:N7:1,2014-03-01T03:58:00Z,29.6619,-84.3731,1021.349,1111122 
COAPS,ioos:station:COAPS:N7:1,2014-03-01T03:59:00Z,29.6619,-84.3731,1021.329,1111122 
COAPS,ioos:station:COAPS:N7:1,2014-03-01T04:00:00Z,29.6619,-84.3731,1021.32,1111122 
COAPS,ioos:station:COAPS:N7:1,2014-03-01T04:01:00Z,29.6619,-84.3731,1021.306,1111122 
COAPS,ioos:station:COAPS:N7:1,2014-03-01T04:02:00Z,29.6619,-84.3731,1021.308,1111122 
COAPS,ioos:station:COAPS:N7:1,2014-03-01T04:03:00Z,29.6619,-84.3731,1021.294,1111122 
COAPS,ioos:station:COAPS:N7:1,2014-03-01T04:04:00Z,29.6619,-84.3731,1021.286,1111122 
COAPS,ioos:station:COAPS:N7:1,2014-03-01T04:05:00Z,29.6619,-84.3731,1021.274,1111122 
COAPS,ioos:station:COAPS:N7:1,2014-03-01T04:06:00Z,29.6619,-84.3731,1021.255,1111122 
COAPS,ioos:station:COAPS:N7:1,2014-03-01T04:07:00Z,29.6619,-84.3731,1021.241,1111122 
COAPS,ioos:station:COAPS:N7:1,2014-03-01T04:08:00Z,29.6619,-84.3731,1021.215,1111122 
COAPS,ioos:station:COAPS:N7:1,2014-03-01T04:09:00Z,29.6619,-84.3731,1021.208,1111122 
COAPS,ioos:station:COAPS:N7:1,2014-03-01T04:10:00Z,29.6619,-84.3731,1021.194,1111122 
COAPS,ioos:station:COAPS:N7:1,2014-03-01T04:11:00Z,29.6619,-84.3731,1021.195,1111122 
COAPS,ioos:station:COAPS:N7:1,2014-03-01T04:12:00Z,29.6619,-84.3731,1021.209,1111122 
COAPS,ioos:station:COAPS:N7:1,2014-03-01T04:13:00Z,29.6619,-84.3731,1021.243,1111122 
COAPS,ioos:station:COAPS:N7:1,2014-03-01T04:14:00Z,29.6619,-84.3731,1021.262,1111122 
COAPS,ioos:station:COAPS:N7:1,2014-03-01T04:15:00Z,29.6619,-84.3731,1021.262,1111122 
COAPS,ioos:station:COAPS:N7:1,2014-03-01T04:16:00Z,29.6619,-84.3731,1021.264,1111122 
COAPS,ioos:station:COAPS:N7:1,2014-03-01T04:17:00Z,29.6619,-84.3731,1021.264,1111122 
COAPS,ioos:station:COAPS:N7:1,2014-03-01T04:18:00Z,29.6619,-84.3731,1021.251,1111122 
COAPS,ioos:station:COAPS:N7:1,2014-03-01T04:19:00Z,29.6619,-84.3731,1021.254,1111122 
COAPS,ioos:station:COAPS:N7:1,2014-03-01T04:20:00Z,29.6619,-84.3731,1021.26,1111122 
COAPS,ioos:station:COAPS:N7:1,2014-03-01T04:21:00Z,29.6619,-84.3731,1021.244,1111122 
COAPS,ioos:station:COAPS:N7:1,2014-03-01T04:22:00Z,29.6619,-84.3731,1021.242,1111122 
COAPS,ioos:station:COAPS:N7:1,2014-03-01T04:23:00Z,29.6619,-84.3731,1021.234,1111122 
COAPS,ioos:station:COAPS:N7:1,2014-03-01T04:24:00Z,29.6619,-84.3731,1021.232,1111122 
COAPS,ioos:station:COAPS:N7:1,2014-03-01T04:25:00Z,29.6619,-84.3731,1021.239,1111122 
COAPS,ioos:station:COAPS:N7:1,2014-03-01T04:26:00Z,29.6619,-84.3731,1021.223,1111122 
COAPS,ioos:station:COAPS:N7:1,2014-03-01T04:27:00Z,29.6619,-84.3731,1021.212,1111122 
COAPS,ioos:station:COAPS:N7:1,2014-03-01T04:28:00Z,29.6619,-84.3731,1021.163,1111122 
COAPS,ioos:station:COAPS:N7:1,2014-03-01T04:29:00Z,29.6619,-84.3731,1021.091,1111122 
COAPS,ioos:station:COAPS:N7:1,2014-03-01T04:30:00Z,29.6619,-84.3731,1021.033,1111122 
COAPS,ioos:station:COAPS:N7:1,2014-03-01T04:31:00Z,29.6619,-84.3731,1020.974,1111122 
COAPS,ioos:station:COAPS:N7:1,2014-03-01T04:32:00Z,29.6619,-84.3731,1020.927,1111122 
COAPS,ioos:station:COAPS:N7:1,2014-03-01T04:33:00Z,29.6619,-84.3731,1020.884,1111122 
COAPS,ioos:station:COAPS:N7:1,2014-03-01T04:34:00Z,29.6619,-84.3731,1020.85,1111122 
COAPS,ioos:station:COAPS:N7:1,2014-03-01T04:35:00Z,29.6619,-84.3731,1020.825,1111122 
COAPS,ioos:station:COAPS:N7:1,2014-03-01T04:36:00Z,29.6619,-84.3731,1020.815,1111122 
COAPS,ioos:station:COAPS:N7:1,2014-03-01T04:37:00Z,29.6619,-84.3731,1020.815,1111122 